Weather History for KRZN - October, 2013

Change the Weather History Date:

Monday, October 7, 2013

  Actual Average Record
Temperature  
Mean Temperature 48 °F -  
Max Temperature 63 °F - - ()
Min Temperature 35 °F - - ()
Degree Days  
Heating Degree Days 16    
Moisture  
Dew Point 40 °F    
Average Humidity 79    
Maximum Humidity 100    
Minimum Humidity 36    
Precipitation  
Precipitation 0.01 in - - ()
Sea Level Pressure  
Sea Level Pressure 29.90 in    
Wind  
Wind Speed 2 mph (WNW)    
Max Wind Speed 10 mph    
Max Gust Speed 17 mph    
Visibility 9 miles    
Events      
T = Trace of Precipitation, MM = Missing Value Source: NWS Daily Summary

Daily Weather History Graph

Daily Weather History Graph

Search for Another Location

Airport or City:

Trip Planner

Search our weather history database for the weather conditions in past years. The results will help you decide how hot, cold, wet, or windy it might be!

Date:

Astronomy

Oct. 07, 2013 Rise Set
Actual Time 7:15 AM CDT 6:37 PM CDT
Civil Twilight 6:46 AM CDT 7:07 PM CDT
Nautical Twilight 6:11 AM CDT 7:41 PM CDT
Astronomical Twilight 5:36 AM CDT 8:16 PM CDT
Moon 10:16 AM CDT (10/7) 8:12 PM CDT (10/7)
Length of Visible Light 12h 21m
Length of Day
11h 21m
Waxing Crescent, 9% of the Moon is Illuminated
Oct 7
Waxing Crescent
Oct 11
First Quarter
Oct 18
Full
Oct 26
Last Quarter
Nov 3
New

Hourly Weather History & Observations

Time (CDT) Temp. Windchill Dew Point Humidity Pressure Visibility Wind Dir Wind Speed Gust Speed Precip Events Conditions
12:15 AM 40.6 °F - 40.1 °F 98% 29.81 in 10.0 mi Calm Calm - N/A   Clear
12:35 AM 40.1 °F - 39.6 °F 98% 29.80 in 10.0 mi Calm Calm - N/A   Clear
12:55 AM 39.7 °F - 39.4 °F 99% 29.81 in 2.5 mi Calm Calm - N/A   Clear
1:15 AM 38.1 °F - 37.8 °F 99% 29.81 in 1.8 mi Calm Calm - N/A   Mist
1:35 AM 39.7 °F - 39.4 °F 99% 29.81 in 10.0 mi Calm Calm - N/A   Clear
1:55 AM 40.3 °F - 39.9 °F 99% 29.81 in 10.0 mi Calm Calm - N/A   Clear
2:15 AM 39.9 °F - 39.6 °F 99% 29.81 in 10.0 mi Calm Calm - N/A   Clear
2:35 AM 41.0 °F - 40.6 °F 99% 29.80 in 10.0 mi Calm Calm - N/A   Clear
2:55 AM 38.7 °F - 38.3 °F 99% 29.80 in 3.0 mi Calm Calm - N/A   Clear
3:15 AM 39.6 °F - 39.4 °F 99% 29.80 in 10.0 mi Calm Calm - N/A   Clear
3:35 AM 39.9 °F - 39.4 °F 98% 29.81 in 10.0 mi Calm Calm - N/A   Scattered Clouds
3:55 AM 39.7 °F - 39.4 °F 99% 29.80 in 10.0 mi Calm Calm - N/A   Scattered Clouds
4:15 AM 38.3 °F - 37.9 °F 99% 29.81 in 7.0 mi Calm Calm - N/A   Clear
4:35 AM 37.4 °F - 37.4 °F 100% 29.81 in 1.0 mi Calm Calm - N/A   Mist
4:55 AM 39.0 °F - 38.7 °F 99% 29.81 in 5.0 mi Calm Calm - N/A   Clear
5:15 AM 38.1 °F - 37.8 °F 99% 29.82 in 7.0 mi Calm Calm - N/A   Clear
5:35 AM 36.0 °F - 35.8 °F 99% 29.83 in 1.8 mi Calm Calm - N/A   Mist
5:55 AM 35.1 °F - 34.9 °F 99% 29.83 in 2.0 mi Calm Calm - N/A   Clear
6:15 AM 36.7 °F - 36.5 °F 99% 29.83 in 4.0 mi Calm Calm - N/A   Clear
6:35 AM 35.2 °F - 35.1 °F 99% 29.84 in 10.0 mi Calm Calm - 0.01 in   Clear
6:55 AM 37.8 °F - 37.6 °F 99% 29.85 in 10.0 mi Calm Calm - 0.01 in   Clear
7:15 AM 36.9 °F - 36.7 °F 99% 29.85 in 10.0 mi Calm Calm - N/A   Clear
7:35 AM 38.7 °F - 38.5 °F 99% 29.86 in 10.0 mi Calm Calm - N/A   Clear
7:55 AM 36.9 °F - 36.7 °F 99% 29.86 in 3.0 mi Calm Calm - N/A   Clear
8:15 AM 40.1 °F - 39.7 °F 99% 29.87 in 10.0 mi Calm Calm - N/A   Clear
8:35 AM 42.1 °F 39.2 °F 41.9 °F 99% 29.88 in 10.0 mi WNW 4.6 mph - N/A   Clear
8:55 AM 43.2 °F 40.5 °F 42.8 °F 99% 29.89 in 10.0 mi NW 4.6 mph - N/A   Clear
9:15 AM 44.1 °F 40.8 °F 43.7 °F 99% 29.90 in 10.0 mi NW 5.8 mph - N/A   Clear
9:35 AM 45.0 °F 41.8 °F 44.1 °F 97% 29.91 in 10.0 mi NNW 5.8 mph - N/A   Clear
9:55 AM 46.4 °F 43.5 °F 45.1 °F 95% 29.92 in 10.0 mi NW 5.8 mph - N/A   Clear
10:15 AM 47.5 °F - 45.3 °F 92% 29.92 in 10.0 mi WNW 3.5 mph - N/A   Clear
10:35 AM 49.1 °F - 44.8 °F 85% 29.92 in 10.0 mi NNW 5.8 mph - N/A   Clear
10:55 AM 52.0 °F - 44.4 °F 75% 29.93 in 10.0 mi NW 4.6 mph - N/A   Clear
11:15 AM 54.3 °F - 45.1 °F 71% 29.93 in 10.0 mi WNW 8.1 mph - N/A   Clear
11:35 AM 55.4 °F - 44.1 °F 66% 29.93 in 10.0 mi NW 8.1 mph - N/A   Clear
11:55 AM 56.3 °F - 43.2 °F 61% 29.94 in 10.0 mi NW 8.1 mph 17.3 mph N/A   Clear
12:15 PM 57.4 °F - 42.8 °F 58% 29.94 in 10.0 mi WNW 8.1 mph - N/A   Clear
12:35 PM 58.3 °F - 41.0 °F 53% 29.94 in 10.0 mi NNW 9.2 mph - N/A   Clear
12:55 PM 59.0 °F - 40.8 °F 51% 29.94 in 10.0 mi NW 6.9 mph - N/A   Clear
1:15 PM 59.5 °F - 39.6 °F 48% 29.93 in 10.0 mi NNW 8.1 mph - N/A   Clear
1:35 PM 60.1 °F - 40.5 °F 48% 29.93 in 10.0 mi NW 6.9 mph - N/A   Clear
1:55 PM 61.0 °F - 38.8 °F 44% 29.93 in 10.0 mi WNW 10.4 mph - N/A   Clear
2:15 PM 61.2 °F - 38.1 °F 42% 29.93 in 10.0 mi NW 6.9 mph - N/A   Clear
2:35 PM 61.5 °F - 38.3 °F 42% 29.93 in 10.0 mi West 8.1 mph - N/A   Clear
2:55 PM 62.2 °F - 38.1 °F 41% 29.94 in 10.0 mi West 6.9 mph - N/A   Clear
3:15 PM 62.2 °F - 35.4 °F 37% 29.94 in 10.0 mi West 9.2 mph - N/A   Clear
3:35 PM 62.6 °F - 36.7 °F 38% 29.94 in 10.0 mi WNW 9.2 mph - N/A   Clear
3:55 PM 62.6 °F - 36.5 °F 38% 29.94 in 10.0 mi West 6.9 mph - N/A   Clear
4:15 PM 62.8 °F - 36.9 °F 38% 29.93 in 10.0 mi West 8.1 mph - N/A   Clear
4:35 PM 62.8 °F - 35.6 °F 36% 29.94 in 10.0 mi West 8.1 mph - N/A   Clear
4:55 PM 62.1 °F - 37.2 °F 40% 29.94 in 10.0 mi SW 8.1 mph - N/A   Clear
5:15 PM 61.2 °F - 37.9 °F 42% 29.94 in 10.0 mi West 8.1 mph - N/A   Clear
5:35 PM 60.8 °F - 36.5 °F 40% 29.95 in 10.0 mi West 6.9 mph - N/A   Clear
5:55 PM 59.9 °F - 36.7 °F 42% 29.95 in 10.0 mi West 5.8 mph - N/A   Clear
6:15 PM 58.1 °F - 37.8 °F 47% 29.95 in 10.0 mi West 5.8 mph - N/A   Clear
6:35 PM 56.3 °F - 37.8 °F 50% 29.95 in 10.0 mi West 4.6 mph - N/A   Clear
6:55 PM 49.8 °F - 41.7 °F 74% 29.96 in 10.0 mi Calm Calm - N/A   Clear
7:15 PM 49.5 °F - 42.1 °F 76% 29.97 in 10.0 mi Calm Calm - N/A   Clear
7:35 PM 48.4 °F - 41.7 °F 78% 29.97 in 10.0 mi Calm Calm - N/A   Clear
7:55 PM 47.3 °F - 42.8 °F 84% 29.98 in 10.0 mi Calm Calm - N/A   Clear
8:15 PM 45.0 °F - 40.6 °F 85% 29.98 in 10.0 mi Calm Calm - N/A   Clear
8:35 PM 43.0 °F - 40.3 °F 90% 29.98 in 10.0 mi Calm Calm - N/A   Clear
8:55 PM 43.2 °F - 40.5 °F 90% 29.98 in 10.0 mi Calm Calm - N/A   Clear
9:15 PM 42.1 °F - 39.6 °F 91% 29.99 in 10.0 mi Calm Calm - N/A   Clear
9:35 PM 43.0 °F - 40.8 °F 92% 29.98 in 10.0 mi Calm Calm - N/A   Clear
9:55 PM 43.3 °F - 41.7 °F 94% 29.98 in 10.0 mi Calm Calm - N/A   Clear
10:15 PM 42.4 °F - 40.6 °F 93% 29.98 in 10.0 mi Calm Calm - N/A   Clear
10:35 PM 42.4 °F - 40.5 °F 93% 29.99 in 10.0 mi Calm Calm - N/A   Clear
10:55 PM 41.7 °F - 39.4 °F 91% 29.98 in 10.0 mi Calm Calm - N/A   Clear
11:15 PM 42.4 °F - 40.6 °F 93% 29.98 in 10.0 mi Calm Calm - N/A   Clear
11:35 PM 42.8 °F - 41.0 °F 93% 29.98 in 10.0 mi Calm Calm - N/A   Clear
11:55 PM 42.3 °F - 39.9 °F 91% 29.98 in 10.0 mi Calm Calm - N/A   Clear